SCP
0 0 0 0 0 0 0 0 0 0 0 0 0 0 0 0 1 1 1 1 1 1 1 1 1 2 1 1 1 1 1 1 1 1 0 0 0 0 0 0 0 0 0
0 0 0 0 0 0 0 0 0 0 0 0 0 0 0 0 0 0 1 0 0 0 0 1 1 1 1 2 1 1 1 1 1 1 1 1 0 0 0 0 0 0 0
0 0 0 0 0 0 0 0 0 0 0 0 0 0 0 0 0 0 0 0 0 0 0 0 0 1 1 2 2 1 1 0 0 0 1 1 1 0 0 0 0 0 0
0 0 0 0 0 0 0 0 0 0 0 0 0 0 0 0 0 0 0 0 0 0 0 0 0 0 1 1 1 2 1 1 1 0 0 1 1 0 0 0 0 0 0
0 0 0 0 0 0 0 0 0 0 0 0 0 0 0 0 0 0 0 0 0 0 0 0 0 0 0 0 1 1 1 1 1 1 0 0 0 0 0 0 0 0 0
0 0 0 0 0 0 0 0 0 0 0 0 0 0 0 0 0 0 0 0 0 0 0 0 0 0 0 0 0 0 0 1 1 1 1 0 0 0 0 0 0 0 0
0 0 0 0 0 0 0 0 0 0 0 0 0 0 0 0 0 0 0 0 0 0 0 0 0 0 0 0 0 0 0 0 0 0 0 0 1 0 0 0 0 0 0
0 0 0 0 0 0 0 0 0 0 0 0 0 0 0 0 0 0 0 0 0 0 0 0 0 0 0 0 0 0 0 0 0 0 0 0 0 1 1 0 0 0 0
0 0 0 0 0 0 0 0 0 0 0 0 0 0 0 0 0 0 0 0 0 0 0 0 0 0 0 0 0 0 0 0 0 0 0 0 0 0 1 1 1 0 0
0 0 0 0 0 0 0 0 0 0 0 0 0 0 0 0 0 0 0 0 0 0 0 0 0 0 0 0 0 0 0 0 0 0 0 0 0 0 0 1 1 1 0
0 0 0 0 0 0 0 0 0 0 0 0 0 0 0 0 0 0 0 0 0 0 0 0 0 0 0 0 0 0 0 0 0 0 0 0 0 0 0 1 1 1 1
0 0 0 0 0 0 0 0 0 0 0 0 0 0 0 0 0 0 0 0 0 0 0 0 0 0 0 0 0 0 0 0 0 0 0 0 0 0 0 0 0 0 1
0 0 0 0 0 0 0 0 0 0 0 0 0 0 0 0 0 0 0 0 0 0 0 0 0 0 0 0 0 0 0 0 0 0 0 0 0 0 0 0 0 0 0
0 0 0 0 0 0 0 0 0 0 0 0 0 0 0 0 0 0 0 0 0 0 0 0 0 0 0 0 0 0 0 0 0 0 0 0 0 0 0 0 0 0 0
0 0 0 0 0 0 0 0 0 0 0 0 0 0 0 0 0 0 0 0 0 0 0 0 0 0 0 0 0 0 0 0 0 0 0 0 0 0 0 0 0 0 0
0 0 0 0 0 0 0 0 0 0 0 0 0 0 0 0 0 0 0 0 0 0 0 0 0 0 0 0 0 0 0 0 0 0 0 0 0 0 0 0 0 0 0
0 0 0 0 0 0 0 0 0 0 0 0 0 0 0 0 0 0 0 0 0 0 0 0 0 0 0 0 0 0 0 0 0 0 0 0 0 0 0 0 0 0 0
0 0 0 0 0 0 0 0 0 0 0 0 0 0 0 0 0 0 0 0 0 0 0 0 0 0 0 0 0 0 0 0 0 0 0 0 0 0 0 0 0 0 0
0 0 0 0 0 0 0 0 0 0 0 0 0 0 0 0 0 0 0 0 0 0 0 0 0 0 0 0 0 0 0 0 0 0 0 0 0 0 0 0 0 0 0
0 0 0 0 0 0 0 0 0 0 0 0 0 0 0 0 0 0 0 0 0 0 0 0 0 0 0 0 0 0 0 0 0 0 0 0 0 0 0 0 0 0 0
0 0 0 0 0 0 0 0 0 0 0 0 0 0 0 0 0 0 0 0 0 0 0 0 0 0 0 0 0 0 0 0 0 0 0 0 0 0 0 0 0 0 0
0 0 0 0 0 0 0 0 0 0 0 0 0 0 0 0 0 0 0 0 0 0 0 0 0 0 0 0 0 0 0 0 0 0 0 0 0 0 0 0 0 0 0
0 0 0 0 0 0 0 0 0 0 0 0 0 0 0 0 0 0 0 0 0 0 0 0 0 0 0 0 0 0 0 0 0 0 0 0 0 0 0 0 0 0 0
0 0 0 0 0 0 0 0 0 0 0 0 0 0 0 0 0 0 0 0 0 0 0 0 0 0 0 0 -0 0 0 0 -0 0 0 0 0 0 0 0 0 0 0
0 0 0 0 0 0 0 0 0 0 0 0 0 0 0 0 0 0 0 0 0 0 0 0 0 0 0 -0 0 -0 -0 0 0 0 0 0 0 0 0 0 0 0 0
0 0 0 0 0 0 0 0 0 0 0 0 0 0 0 0 0 0 0 0 0 0 0 0 0 0 0 0 0 0 0 0 0 0 0 0 0 0 0 0 0 0 0
Wind_Speed_500mb
13 18 24 29 32 31 30 31 32 33 32 30 29 29 30 31 33 36 38 41 40 40 38 35 34 33 33 34 36 38 39 38 38 37 37 37 34 30 27 26 25 30 33
14 19 23 23 24 26 29 32 33 33 34 32 29 27 24 21 21 21 23 27 30 34 37 37 37 36 34 34 37 40 42 44 40 37 40 39 38 36 32 30 28 28 30
14 15 16 18 22 26 27 27 28 29 29 29 25 22 19 19 18 18 20 19 19 21 25 27 31 35 35 34 35 38 42 44 42 40 43 43 45 39 37 35 34 32 30
7 12 15 19 25 28 30 31 32 32 32 28 22 19 16 16 20 22 24 23 23 27 26 30 28 28 26 30 36 43 49 50 47 47 47 51 49 46 43 37 40 38 34
11 14 18 25 27 28 30 33 34 34 33 29 15 12 11 16 19 20 23 26 26 26 23 27 29 32 30 30 29 28 32 37 43 46 50 54 52 46 43 41 42 41 40
18 18 21 22 24 26 31 33 35 36 36 31 14 5 8 12 27 20 27 29 29 27 27 26 28 28 27 27 27 25 21 25 32 34 35 37 43 43 44 45 46 44 41
20 18 20 22 26 30 34 37 39 41 42 41 27 11 9 15 30 23 30 33 33 32 30 29 28 29 28 27 25 25 25 26 27 27 29 30 31 37 41 42 43 45 44
20 18 20 22 25 29 33 37 39 39 39 43 37 18 18 11 33 19 30 35 39 34 32 30 30 31 30 30 30 28 28 27 28 32 31 34 32 32 35 40 41 41 43
17 17 19 21 25 31 36 38 38 37 32 31 37 25 17 18 40 25 31 33 41 35 32 32 34 34 35 34 33 33 33 34 33 32 33 31 37 41 43 41 40 42 43
15 15 15 19 24 30 34 38 38 37 33 29 23 26 26 24 27 29 37 34 39 38 34 29 31 34 37 37 38 36 36 36 36 35 35 35 35 34 36 43 46 48 49
13 11 12 16 21 30 33 35 35 35 34 28 27 23 25 26 25 33 43 47 40 35 34 26 30 31 39 40 40 39 38 38 38 37 36 37 36 36 35 34 41 48 50
10 8 8 13 22 27 30 30 34 34 31 26 21 24 27 26 29 33 42 48 45 40 34 27 23 31 36 34 34 36 37 36 36 37 36 35 35 36 36 34 34 40 48
7 4 6 13 21 26 27 29 33 32 28 21 23 21 21 21 25 29 33 39 46 41 31 22 21 28 30 32 36 38 36 36 35 34 35 32 31 33 35 34 32 34 39
5 1 7 17 24 26 26 30 32 29 24 22 24 22 18 22 26 27 27 31 34 36 33 33 30 25 30 33 36 36 39 39 39 36 35 34 30 29 31 32 32 30 33
7 5 9 17 22 23 26 33 29 23 19 19 20 22 26 24 24 24 21 22 25 29 35 31 38 38 38 37 39 41 41 41 41 42 39 35 35 30 28 31 30 28 31
12 12 14 18 21 29 31 31 25 20 18 19 20 25 28 25 24 21 20 19 19 24 30 36 38 41 51 48 42 45 47 48 47 43 43 41 38 39 34 34 31 30 31
15 15 17 19 25 30 30 24 18 15 15 19 23 24 25 25 22 21 21 21 23 25 32 38 38 41 49 49 54 58 52 48 44 50 47 46 41 36 35 37 37 32 24
15 17 20 23 29 31 25 18 14 16 20 22 24 24 25 24 23 24 22 23 24 28 35 44 43 44 42 44 49 54 46 38 43 43 48 49 46 35 30 30 39 39 26
17 17 18 24 28 22 14 14 14 16 18 20 24 27 30 27 21 20 23 24 28 33 33 37 41 40 41 39 42 40 40 40 37 39 39 37 44 41 36 30 37 35 30
19 15 20 23 16 8 9 13 16 19 21 23 25 26 22 19 16 20 21 27 30 33 31 34 37 39 39 40 39 42 44 39 44 38 36 39 36 39 36 30 39 39 36
13 15 17 11 5 6 11 15 20 23 23 20 18 18 17 14 15 18 22 29 29 28 30 33 37 37 40 44 44 44 44 45 44 34 40 40 38 33 28 31 29 35 41
9 10 10 5 6 7 14 19 19 18 19 18 18 18 13 17 20 23 24 25 27 29 30 35 36 38 41 41 42 46 44 50 51 37 44 40 31 30 25 18 24 28 28
10 12 8 7 5 7 11 12 13 14 17 19 20 18 16 18 24 26 25 26 27 30 30 30 30 34 42 38 41 41 43 44 47 44 40 39 28 29 24 20 22 23 23
11 12 12 9 4 1 5 10 10 10 13 19 20 20 20 22 28 33 34 28 27 25 30 30 35 40 36 35 38 40 42 45 41 37 34 30 35 32 30 14 13 18 17
15 19 14 11 4 2 3 8 10 9 12 13 17 17 21 29 36 37 34 29 27 25 26 29 32 30 29 31 40 40 38 43 46 37 33 37 31 39 28 6 16 14 10
20 18 16 10 7 5 5 5 8 10 11 10 13 18 24 32 39 40 35 29 27 29 36 35 31 29 29 26 34 31 31 40 42 39 36 39 32 38 25 10 23 24 11
Wind_Direction_500mb
321 329 332 333 336 341 347 349 346 343 338 331 323 313 303 295 288 285 284 284 283 284 287 288 283 278 276 271 264 270 275 276 276 273 274 273 271 272 274 273 266 255 252
323 324 329 342 353 357 359 358 355 353 350 347 342 338 338 334 323 316 308 301 294 288 284 280 277 274 273 274 274 265 264 273 268 265 267 271 269 269 270 272 272 266 264
325 341 2 7 14 18 17 15 12 7 0 359 359 7 29 31 21 19 8 354 339 320 309 305 291 277 271 265 264 266 265 272 269 259 260 265 266 265 263 268 271 270 267
13 25 32 31 33 27 22 20 18 18 17 14 14 22 41 40 10 3 348 343 341 340 337 329 317 309 296 284 275 271 272 275 273 268 264 264 264 262 261 262 263 265 267
81 66 56 47 40 31 24 21 16 14 17 19 23 27 37 31 18 13 353 2 355 343 336 324 329 321 310 300 300 290 281 276 274 273 274 270 262 257 257 261 262 260 262
92 74 61 52 44 35 32 27 23 19 20 25 19 20 67 30 16 8 14 9 360 357 357 343 334 325 326 321 310 305 299 282 277 276 279 273 264 264 263 263 262 260 259
101 88 79 63 50 38 34 28 23 18 12 14 30 11 331 287 9 17 13 11 4 1 356 352 349 344 337 336 329 318 305 293 289 286 281 276 269 265 267 269 265 260 258
107 93 75 56 44 34 25 21 18 18 16 11 17 6 353 345 350 358 2 7 4 2 358 354 347 346 343 343 337 331 321 314 304 294 283 274 275 274 270 270 271 265 263
109 83 64 49 38 28 21 16 14 13 17 13 11 27 357 344 337 337 346 347 355 357 352 350 343 339 337 336 334 332 328 324 317 310 303 294 280 269 270 268 269 268 264
103 80 59 42 31 22 15 11 6 3 6 7 7 4 1 350 343 328 333 338 345 343 348 344 345 344 339 334 329 326 321 323 322 317 313 306 300 293 272 262 261 263 262
103 73 51 31 18 14 10 4 359 354 352 354 356 357 350 344 337 330 327 333 335 341 339 341 338 344 344 340 337 336 329 322 319 318 315 312 309 300 298 283 264 257 259
115 81 45 15 5 2 359 357 353 347 343 339 342 348 344 340 335 333 325 327 330 334 335 339 334 343 343 344 346 343 341 332 319 315 316 314 310 306 298 297 281 267 260
124 82 20 354 350 348 349 353 348 340 336 329 325 333 339 336 334 329 324 322 326 332 335 342 337 344 343 337 339 339 339 336 332 324 320 316 310 307 305 297 300 280 267
164 223 328 334 337 335 338 350 343 335 323 319 323 331 342 337 329 325 321 321 330 330 333 338 337 341 347 340 328 326 325 327 327 328 329 322 312 304 304 310 293 300 284
208 250 304 322 327 331 339 343 336 327 318 319 323 332 338 339 338 332 325 328 327 326 324 324 330 326 334 334 333 324 318 313 314 314 311 309 312 309 306 307 303 294 293
233 260 296 320 327 331 333 335 331 317 312 315 321 327 329 334 341 335 329 327 322 319 310 315 313 317 322 325 325 322 316 311 306 304 306 307 301 299 301 297 299 295 291
238 262 289 310 327 333 336 335 331 319 317 321 322 324 331 339 341 338 333 325 320 321 312 311 310 312 319 321 320 322 324 319 313 300 297 299 301 300 298 297 295 296 289
249 279 294 316 325 329 328 332 332 326 323 323 324 330 332 336 335 333 333 326 322 325 318 315 315 320 322 324 322 322 325 325 318 316 303 292 291 289 288 303 299 292 285
252 277 298 315 316 318 328 333 334 332 330 329 327 326 324 325 326 330 336 328 325 326 327 324 325 325 327 330 333 333 331 330 328 326 323 308 282 279 276 284 295 292 292
253 273 307 308 304 324 329 334 332 327 327 325 325 328 338 343 336 337 340 342 337 336 331 331 330 331 335 338 339 336 334 330 328 328 320 327 315 278 273 274 277 283 288
258 292 305 281 298 315 322 330 332 331 339 344 343 343 351 6 354 349 339 330 333 331 331 331 333 332 336 338 340 338 333 332 330 332 321 328 327 319 277 268 277 271 272
254 294 275 249 267 311 333 338 349 0 15 33 36 26 29 8 357 351 352 349 335 331 323 327 331 332 334 335 334 335 335 333 332 334 325 328 333 324 315 299 263 261 261
270 267 204 213 250 327 342 359 11 21 38 32 27 22 20 11 9 2 359 357 353 344 341 338 330 334 332 330 335 339 338 338 333 335 329 322 326 332 319 302 268 255 274
239 187 185 205 223 320 23 13 23 29 26 15 30 34 26 12 356 346 339 339 339 339 339 340 334 332 330 334 337 334 338 337 338 338 331 330 328 328 330 308 307 276 281
188 186 197 191 193 150 61 49 41 36 12 24 27 23 10 359 353 349 350 349 348 343 340 337 334 334 334 324 331 333 341 346 348 349 348 341 331 330 330 334 4 326 290
187 197 189 190 181 159 124 70 53 58 45 41 24 8 358 357 357 358 -0 0 355 351 352 355 355 350 348 343 352 348 341 347 351 350 346 347 342 349 330 340 354 6 354
Wind_Speed_850mb
13 18 24 29 32 31 30 31 32 33 32 30 29 29 30 31 33 36 38 41 40 40 38 35 34 33 33 34 36 38 39 38 38 37 37 37 34 30 27 26 25 30 33
14 19 23 23 24 26 29 32 33 33 34 32 29 27 24 21 21 21 23 27 30 34 37 37 37 36 34 34 37 40 42 44 40 37 40 39 38 36 32 30 28 28 30
14 15 16 18 22 26 27 27 28 29 29 29 25 22 19 19 18 18 20 19 19 21 25 27 31 35 35 34 35 38 42 44 42 40 43 43 45 39 37 35 34 32 30
7 12 15 19 25 28 30 31 32 32 32 28 22 19 16 16 20 22 24 23 23 27 26 30 28 28 26 30 36 43 49 50 47 47 47 51 49 46 43 37 40 38 34
11 14 18 25 27 28 30 33 34 34 33 29 15 12 11 16 19 20 23 26 26 26 23 27 29 32 30 30 29 28 32 37 43 46 50 54 52 46 43 41 42 41 40
18 18 21 22 24 26 31 33 35 36 36 31 14 5 8 12 27 20 27 29 29 27 27 26 28 28 27 27 27 25 21 25 32 34 35 37 43 43 44 45 46 44 41
20 18 20 22 26 30 34 37 39 41 42 41 27 11 9 15 30 23 30 33 33 32 30 29 28 29 28 27 25 25 25 26 27 27 29 30 31 37 41 42 43 45 44
20 18 20 22 25 29 33 37 39 39 39 43 37 18 18 11 33 19 30 35 39 34 32 30 30 31 30 30 30 28 28 27 28 32 31 34 32 32 35 40 41 41 43
17 17 19 21 25 31 36 38 38 37 32 31 37 25 17 18 40 25 31 33 41 35 32 32 34 34 35 34 33 33 33 34 33 32 33 31 37 41 43 41 40 42 43
15 15 15 19 24 30 34 38 38 37 33 29 23 26 26 24 27 29 37 34 39 38 34 29 31 34 37 37 38 36 36 36 36 35 35 35 35 34 36 43 46 48 49
13 11 12 16 21 30 33 35 35 35 34 28 27 23 25 26 25 33 43 47 40 35 34 26 30 31 39 40 40 39 38 38 38 37 36 37 36 36 35 34 41 48 50
10 8 8 13 22 27 30 30 34 34 31 26 21 24 27 26 29 33 42 48 45 40 34 27 23 31 36 34 34 36 37 36 36 37 36 35 35 36 36 34 34 40 48
7 4 6 13 21 26 27 29 33 32 28 21 23 21 21 21 25 29 33 39 46 41 31 22 21 28 30 32 36 38 36 36 35 34 35 32 31 33 35 34 32 34 39
5 1 7 17 24 26 26 30 32 29 24 22 24 22 18 22 26 27 27 31 34 36 33 33 30 25 30 33 36 36 39 39 39 36 35 34 30 29 31 32 32 30 33
7 5 9 17 22 23 26 33 29 23 19 19 20 22 26 24 24 24 21 22 25 29 35 31 38 38 38 37 39 41 41 41 41 42 39 35 35 30 28 31 30 28 31
12 12 14 18 21 29 31 31 25 20 18 19 20 25 28 25 24 21 20 19 19 24 30 36 38 41 51 48 42 45 47 48 47 43 43 41 38 39 34 34 31 30 31
15 15 17 19 25 30 30 24 18 15 15 19 23 24 25 25 22 21 21 21 23 25 32 38 38 41 49 49 54 58 52 48 44 50 47 46 41 36 35 37 37 32 24
15 17 20 23 29 31 25 18 14 16 20 22 24 24 25 24 23 24 22 23 24 28 35 44 43 44 42 44 49 54 46 38 43 43 48 49 46 35 30 30 39 39 26
17 17 18 24 28 22 14 14 14 16 18 20 24 27 30 27 21 20 23 24 28 33 33 37 41 40 41 39 42 40 40 40 37 39 39 37 44 41 36 30 37 35 30
19 15 20 23 16 8 9 13 16 19 21 23 25 26 22 19 16 20 21 27 30 33 31 34 37 39 39 40 39 42 44 39 44 38 36 39 36 39 36 30 39 39 36
13 15 17 11 5 6 11 15 20 23 23 20 18 18 17 14 15 18 22 29 29 28 30 33 37 37 40 44 44 44 44 45 44 34 40 40 38 33 28 31 29 35 41
9 10 10 5 6 7 14 19 19 18 19 18 18 18 13 17 20 23 24 25 27 29 30 35 36 38 41 41 42 46 44 50 51 37 44 40 31 30 25 18 24 28 28
10 12 8 7 5 7 11 12 13 14 17 19 20 18 16 18 24 26 25 26 27 30 30 30 30 34 42 38 41 41 43 44 47 44 40 39 28 29 24 20 22 23 23
11 12 12 9 4 1 5 10 10 10 13 19 20 20 20 22 28 33 34 28 27 25 30 30 35 40 36 35 38 40 42 45 41 37 34 30 35 32 30 14 13 18 17
15 19 14 11 4 2 3 8 10 9 12 13 17 17 21 29 36 37 34 29 27 25 26 29 32 30 29 31 40 40 38 43 46 37 33 37 31 39 28 6 16 14 10
20 18 16 10 7 5 5 5 8 10 11 10 13 18 24 32 39 40 35 29 27 29 36 35 31 29 29 26 34 31 31 40 42 39 36 39 32 38 25 10 23 24 11
Wind_Direction_850mb
321 329 332 333 336 341 347 349 346 343 338 331 323 313 303 295 288 285 284 284 283 284 287 288 283 278 276 271 264 270 275 276 276 273 274 273 271 272 274 273 266 255 252
323 324 329 342 353 357 359 358 355 353 350 347 342 338 338 334 323 316 308 301 294 288 284 280 277 274 273 274 274 265 264 273 268 265 267 271 269 269 270 272 272 266 264
325 341 2 7 14 18 17 15 12 7 0 359 359 7 29 31 21 19 8 354 339 320 309 305 291 277 271 265 264 266 265 272 269 259 260 265 266 265 263 268 271 270 267
13 25 32 31 33 27 22 20 18 18 17 14 14 22 41 40 10 3 348 343 341 340 337 329 317 309 296 284 275 271 272 275 273 268 264 264 264 262 261 262 263 265 267
81 66 56 47 40 31 24 21 16 14 17 19 23 27 37 31 18 13 353 2 355 343 336 324 329 321 310 300 300 290 281 276 274 273 274 270 262 257 257 261 262 260 262
92 74 61 52 44 35 32 27 23 19 20 25 19 20 67 30 16 8 14 9 360 357 357 343 334 325 326 321 310 305 299 282 277 276 279 273 264 264 263 263 262 260 259
101 88 79 63 50 38 34 28 23 18 12 14 30 11 331 287 9 17 13 11 4 1 356 352 349 344 337 336 329 318 305 293 289 286 281 276 269 265 267 269 265 260 258
107 93 75 56 44 34 25 21 18 18 16 11 17 6 353 345 350 358 2 7 4 2 358 354 347 346 343 343 337 331 321 314 304 294 283 274 275 274 270 270 271 265 263
109 83 64 49 38 28 21 16 14 13 17 13 11 27 357 344 337 337 346 347 355 357 352 350 343 339 337 336 334 332 328 324 317 310 303 294 280 269 270 268 269 268 264
103 80 59 42 31 22 15 11 6 3 6 7 7 4 1 350 343 328 333 338 345 343 348 344 345 344 339 334 329 326 321 323 322 317 313 306 300 293 272 262 261 263 262
103 73 51 31 18 14 10 4 359 354 352 354 356 357 350 344 337 330 327 333 335 341 339 341 338 344 344 340 337 336 329 322 319 318 315 312 309 300 298 283 264 257 259
115 81 45 15 5 2 359 357 353 347 343 339 342 348 344 340 335 333 325 327 330 334 335 339 334 343 343 344 346 343 341 332 319 315 316 314 310 306 298 297 281 267 260
124 82 20 354 350 348 349 353 348 340 336 329 325 333 339 336 334 329 324 322 326 332 335 342 337 344 343 337 339 339 339 336 332 324 320 316 310 307 305 297 300 280 267
164 223 328 334 337 335 338 350 343 335 323 319 323 331 342 337 329 325 321 321 330 330 333 338 337 341 347 340 328 326 325 327 327 328 329 322 312 304 304 310 293 300 284
208 250 304 322 327 331 339 343 336 327 318 319 323 332 338 339 338 332 325 328 327 326 324 324 330 326 334 334 333 324 318 313 314 314 311 309 312 309 306 307 303 294 293
233 260 296 320 327 331 333 335 331 317 312 315 321 327 329 334 341 335 329 327 322 319 310 315 313 317 322 325 325 322 316 311 306 304 306 307 301 299 301 297 299 295 291
238 262 289 310 327 333 336 335 331 319 317 321 322 324 331 339 341 338 333 325 320 321 312 311 310 312 319 321 320 322 324 319 313 300 297 299 301 300 298 297 295 296 289
249 279 294 316 325 329 328 332 332 326 323 323 324 330 332 336 335 333 333 326 322 325 318 315 315 320 322 324 322 322 325 325 318 316 303 292 291 289 288 303 299 292 285
252 277 298 315 316 318 328 333 334 332 330 329 327 326 324 325 326 330 336 328 325 326 327 324 325 325 327 330 333 333 331 330 328 326 323 308 282 279 276 284 295 292 292
253 273 307 308 304 324 329 334 332 327 327 325 325 328 338 343 336 337 340 342 337 336 331 331 330 331 335 338 339 336 334 330 328 328 320 327 315 278 273 274 277 283 288
258 292 305 281 298 315 322 330 332 331 339 344 343 343 351 6 354 349 339 330 333 331 331 331 333 332 336 338 340 338 333 332 330 332 321 328 327 319 277 268 277 271 272
254 294 275 249 267 311 333 338 349 0 15 33 36 26 29 8 357 351 352 349 335 331 323 327 331 332 334 335 334 335 335 333 332 334 325 328 333 324 315 299 263 261 261
270 267 204 213 250 327 342 359 11 21 38 32 27 22 20 11 9 2 359 357 353 344 341 338 330 334 332 330 335 339 338 338 333 335 329 322 326 332 319 302 268 255 274
239 187 185 205 223 320 23 13 23 29 26 15 30 34 26 12 356 346 339 339 339 339 339 340 334 332 330 334 337 334 338 337 338 338 331 330 328 328 330 308 307 276 281
188 186 197 191 193 150 61 49 41 36 12 24 27 23 10 359 353 349 350 349 348 343 340 337 334 334 334 324 331 333 341 346 348 349 348 341 331 330 330 334 4 326 290
187 197 189 190 181 159 124 70 53 58 45 41 24 8 358 357 357 358 -0 0 355 351 352 355 355 350 348 343 352 348 341 347 351 350 346 347 342 349 330 340 354 6 354